Princeton, MN

9:26 PM CST on November 16, 2019 (GMT -0600)
Princeton Municipal

Weather History for KPNM - September, 2019

Change the Weather History Date:

Wednesday, September 25, 2019

  Actual Average Record
Temperature  
Mean Temperature 58 °F -  
Max Temperature 69 °F 64 °F 78 °F (1997)
Min Temperature 48 °F 40 °F 23 °F (2000)
Degree Days  
Heating Degree Days 6    
Growing Degree Days 8 (Base 50)    
Moisture  
Dew Point 48 °F    
Average Humidity 69    
Maximum Humidity 88    
Minimum Humidity 40    
Precipitation  
Precipitation 0.00 in - - ()
Sea Level Pressure  
Sea Level Pressure 29.72 in    
Wind  
Wind Speed 7 mph (WSW)    
Max Wind Speed 18 mph    
Max Gust Speed 31 mph    
Visibility 10 miles    
Events Rain    
Averages and records for this station are not official NWS values.
T = Trace of Precipitation, MM = Missing Value Source: NWS Daily Summary

Daily Weather History Graph

Daily Weather History Graph

Search for Another Location

Airport or City:

Astronomy

Sep. 25, 2019 Rise Set
Actual Time 7:04 AM CDT 7:06 PM CDT
Civil Twilight 6:35 AM CDT 7:36 PM CDT
Nautical Twilight 6:00 AM CDT 8:10 PM CDT
Astronomical Twilight 5:25 AM CDT 8:45 PM CDT
Moon 2:43 AM CDT (9/25) 5:52 PM CDT (9/25)
Length of Visible Light 13h 00m
Length of Day
12h 01m
Waning Crescent, 14% of the Moon is Illuminated
Sep 25
Waning Crescent
Sep 28
New
Oct 5
First Quarter
Oct 13
Full
Oct 21
Last Quarter

Hourly Weather History & Observations

Time (CDT) Temp. Dew Point Humidity Pressure Visibility Wind Dir Wind Speed Gust Speed Precip Events Conditions
12:15 AM 60.8 °F 57.2 °F 88% 29.57 in 10.0 mi Calm Calm - N/A   Scattered Clouds
12:35 AM 60.8 °F 57.2 °F 88% 29.58 in 10.0 mi SW 3.5 mph - N/A   Mostly Cloudy
12:55 AM 60.8 °F 57.2 °F 88% 29.58 in 10.0 mi WSW 4.6 mph - N/A   Mostly Cloudy
12:59 AM 60.8 °F 57.2 °F 88% 29.58 in 10.0 mi West 4.6 mph - N/A   Scattered Clouds
1:17 AM 60.8 °F 57.2 °F 88% 29.57 in 10.0 mi WSW 3.5 mph - N/A   Scattered Clouds
1:35 AM 60.8 °F 57.2 °F 88% 29.58 in 10.0 mi Calm Calm - N/A   Clear
1:55 AM 59.0 °F 55.4 °F 88% 29.58 in 10.0 mi Calm Calm - N/A   Clear
2:15 AM 59.0 °F 55.4 °F 88% 29.58 in 10.0 mi SW 3.5 mph - N/A   Clear
2:19 AM 59.0 °F 55.4 °F 88% 29.59 in 10.0 mi SW 4.6 mph - N/A   Clear
2:38 AM 59.0 °F 55.4 °F 88% 29.59 in 10.0 mi SW 4.6 mph - N/A   Scattered Clouds
2:56 AM 59.0 °F 55.4 °F 88% 29.59 in 10.0 mi SW 4.6 mph - N/A   Scattered Clouds
3:15 AM 59.0 °F 55.4 °F 88% 29.60 in 10.0 mi WSW 6.9 mph - N/A   Mostly Cloudy
3:35 AM 59.0 °F 53.6 °F 82% 29.60 in 10.0 mi WSW 9.2 mph - N/A   Overcast
3:59 AM 59.0 °F 53.6 °F 82% 29.59 in 10.0 mi West 4.6 mph - N/A   Scattered Clouds
4:17 AM 57.2 °F 53.6 °F 88% 29.61 in 10.0 mi West 8.1 mph - N/A   Scattered Clouds
4:35 AM 57.2 °F 53.6 °F 88% 29.61 in 10.0 mi West 9.2 mph - N/A   Clear
4:36 AM 57.2 °F 53.6 °F 88% 29.61 in 10.0 mi West 10.4 mph - N/A   Clear
4:55 AM 57.2 °F 51.8 °F 82% 29.62 in 10.0 mi West 9.2 mph - N/A   Clear
5:15 AM 55.4 °F 51.8 °F 88% 29.64 in 10.0 mi West 6.9 mph - N/A   Clear
5:38 AM 55.4 °F 51.8 °F 88% 29.65 in 10.0 mi West 10.4 mph - N/A   Clear
5:56 AM 55.4 °F 51.8 °F 88% 29.66 in 10.0 mi West 8.1 mph - N/A   Clear
6:15 AM 55.4 °F 51.8 °F 88% 29.67 in 10.0 mi West 8.1 mph - N/A   Clear
6:16 AM 55.4 °F 51.8 °F 88% 29.67 in 10.0 mi West 6.9 mph - N/A   Clear
6:35 AM 55.4 °F 50.0 °F 82% 29.68 in 10.0 mi West 8.1 mph - N/A   Clear
6:59 AM 53.6 °F 50.0 °F 88% 29.68 in 10.0 mi West 5.8 mph - N/A   Clear
7:17 AM 53.6 °F 50.0 °F 88% 29.69 in 10.0 mi West 5.8 mph - N/A   Clear
7:35 AM 53.6 °F 50.0 °F 88% 29.69 in 10.0 mi West 5.8 mph - N/A   Clear
7:36 AM 53.6 °F 50.0 °F 88% 29.69 in 10.0 mi West 5.8 mph - N/A   Clear
7:55 AM 55.4 °F 51.8 °F 88% 29.70 in 10.0 mi West 5.8 mph - N/A   Clear
7:56 AM 55.4 °F 51.8 °F 88% 29.70 in 10.0 mi West 5.8 mph - N/A   Clear
8:15 AM 55.4 °F 51.8 °F 88% 29.71 in 10.0 mi West 8.1 mph - N/A   Clear
8:38 AM 57.2 °F 51.8 °F 82% 29.71 in 10.0 mi West 9.2 mph - N/A   Clear
8:56 AM 57.2 °F 51.8 °F 82% 29.72 in 10.0 mi West 8.1 mph - N/A   Clear
9:15 AM 59.0 °F 51.8 °F 77% 29.72 in 10.0 mi West 9.2 mph - N/A   Clear
9:35 AM 60.8 °F 51.8 °F 72% 29.73 in 10.0 mi West 8.1 mph - N/A   Clear
9:36 AM 60.8 °F 51.8 °F 72% 29.73 in 10.0 mi West 8.1 mph - N/A   Clear
9:59 AM 62.6 °F 51.8 °F 68% 29.73 in 10.0 mi West 11.5 mph 16.1 mph N/A   Clear
10:17 AM 62.6 °F 50.0 °F 63% 29.74 in 10.0 mi West 10.4 mph 17.3 mph N/A   Clear
10:35 AM 64.4 °F 48.2 °F 56% 29.74 in 10.0 mi WSW 10.4 mph 16.1 mph N/A   Clear
10:55 AM 64.4 °F 48.2 °F 56% 29.75 in 10.0 mi WSW 11.5 mph 17.3 mph N/A   Clear
10:59 AM 64.4 °F 48.2 °F 56% 29.75 in 10.0 mi West 13.8 mph 19.6 mph N/A   Clear
11:17 AM 66.2 °F 48.2 °F 52% 29.75 in 10.0 mi WSW 13.8 mph 19.6 mph N/A   Clear
11:35 AM 66.2 °F 46.4 °F 49% 29.75 in 10.0 mi West 12.7 mph 20.7 mph N/A   Clear
11:55 AM 66.2 °F 46.4 °F 49% 29.75 in 10.0 mi West 13.8 mph 19.6 mph N/A   Clear
11:56 AM 66.2 °F 46.4 °F 49% 29.75 in 10.0 mi West 16.1 mph 23.0 mph N/A   Clear
12:15 PM 66.2 °F 46.4 °F 49% 29.75 in 10.0 mi WSW 12.7 mph 17.3 mph N/A   Clear
12:38 PM 66.2 °F 44.6 °F 46% 29.75 in 10.0 mi WSW 13.8 mph 21.9 mph N/A   Clear
12:56 PM 66.2 °F 44.6 °F 46% 29.74 in 10.0 mi WSW 11.5 mph 21.9 mph N/A   Clear
1:15 PM 68.0 °F 44.6 °F 43% 29.74 in 10.0 mi West 17.3 mph 20.7 mph N/A   Scattered Clouds
1:35 PM 66.2 °F 44.6 °F 46% 29.74 in 10.0 mi WSW 15.0 mph 21.9 mph N/A   Scattered Clouds
1:59 PM 69.8 °F 44.6 °F 40% 29.74 in 10.0 mi WSW 16.1 mph 23.0 mph N/A   Scattered Clouds
2:16 PM 68.0 °F 42.8 °F 40% 29.74 in 10.0 mi WNW 11.5 mph 24.2 mph N/A   Scattered Clouds
2:35 PM 68.0 °F 42.8 °F 40% 29.73 in 10.0 mi West 18.4 mph 21.9 mph N/A   Clear
2:56 PM 68.0 °F 42.8 °F 40% 29.74 in 10.0 mi West 13.8 mph 20.7 mph N/A   Clear
3:15 PM 64.4 °F 42.8 °F 45% 29.74 in 10.0 mi West 13.8 mph 21.9 mph N/A   Clear
3:16 PM 66.2 °F 42.8 °F 43% 29.74 in 10.0 mi West 13.8 mph 19.6 mph N/A   Clear
3:35 PM 66.2 °F 42.8 °F 43% 29.74 in 10.0 mi West 12.7 mph 21.9 mph N/A   Clear
3:59 PM 66.2 °F 42.8 °F 43% 29.74 in 10.0 mi WSW 15.0 mph 23.0 mph N/A   Scattered Clouds
4:17 PM 66.2 °F 42.8 °F 43% 29.74 in 10.0 mi West 16.1 mph 21.9 mph N/A   Scattered Clouds
4:35 PM 66.2 °F 42.8 °F 43% 29.74 in 10.0 mi WSW 12.7 mph 17.3 mph N/A   Scattered Clouds
4:55 PM 66.2 °F 44.6 °F 46% 29.74 in 10.0 mi WSW 9.2 mph 18.4 mph N/A   Clear
5:15 PM 66.2 °F 44.6 °F 46% 29.75 in 10.0 mi West 11.5 mph - N/A   Scattered Clouds
5:20 PM 66.2 °F 44.6 °F 46% 29.75 in 10.0 mi West 16.1 mph 19.6 mph N/A   Scattered Clouds
5:38 PM 64.4 °F 42.8 °F 45% 29.75 in 10.0 mi West 11.5 mph 20.7 mph N/A   Scattered Clouds
5:56 PM 59.0 °F 46.4 °F 63% 29.76 in 5.0 mi WNW 12.7 mph 31.1 mph N/A Rain Rain
6:15 PM 57.2 °F 46.4 °F 67% 29.76 in 10.0 mi West 10.4 mph - N/A   Scattered Clouds
6:35 PM 57.2 °F 46.4 °F 67% 29.77 in 10.0 mi West 5.8 mph - N/A   Scattered Clouds
6:59 PM 57.2 °F 44.6 °F 63% 29.78 in 10.0 mi West 8.1 mph - N/A   Clear
7:17 PM 57.2 °F 44.6 °F 63% 29.78 in 10.0 mi West 6.9 mph - N/A   Clear
7:35 PM 57.2 °F 44.6 °F 63% 29.79 in 10.0 mi West 6.9 mph - N/A   Clear
7:55 PM 55.4 °F 44.6 °F 67% 29.80 in 10.0 mi West 3.5 mph - N/A   Scattered Clouds
8:15 PM 55.4 °F 44.6 °F 67% 29.82 in 10.0 mi North 9.2 mph - N/A   Mostly Cloudy
8:38 PM 55.4 °F 46.4 °F 72% 29.83 in 10.0 mi WSW 3.5 mph - N/A   Overcast
8:56 PM 53.6 °F 46.4 °F 77% 29.83 in 10.0 mi Calm Calm - N/A   Mostly Cloudy
9:15 PM 53.6 °F 44.6 °F 72% 29.84 in 10.0 mi Calm Calm - N/A   Scattered Clouds
9:35 PM 53.6 °F 44.6 °F 72% 29.85 in 10.0 mi Calm Calm - N/A   Clear
9:59 PM 51.8 °F 44.6 °F 76% 29.85 in 10.0 mi Calm Calm - N/A   Clear
10:17 PM 48.2 °F 42.8 °F 82% 29.85 in 10.0 mi Calm Calm - N/A   Clear
10:35 PM 51.8 °F 42.8 °F 71% 29.85 in 10.0 mi SW 4.6 mph - N/A   Clear
10:36 PM 51.8 °F 42.8 °F 71% 29.85 in 10.0 mi SW 3.5 mph - N/A   Clear
10:55 PM 51.8 °F 42.8 °F 71% 29.85 in 10.0 mi SW 4.6 mph - N/A   Clear
10:56 PM 51.8 °F 42.8 °F 71% 29.86 in 10.0 mi SW 4.6 mph - N/A   Clear
11:15 PM 51.8 °F 42.8 °F 71% 29.86 in 10.0 mi Calm Calm - N/A   Clear
11:38 PM 50.0 °F 42.8 °F 76% 29.86 in 10.0 mi SW 3.5 mph - N/A   Clear
11:56 PM 50.0 °F 42.8 °F 76% 29.86 in 10.0 mi SW 3.5 mph - N/A   Clear